Regional Weather Roundup
Issued by NWS

Home | Current Version | Previous Version | Graphics & Text | Print | Product List | Glossary On
Versions: 1 2 3 4 5 6 7 8 9 10 11 12 13 14 15 16 17 18 19 20 21 22 23 24 25 26 27 28 29 30 31 32 33 34 35 36 37 38 39 40 41 42 43 44 45 46 47 48 49 50
000
ASUS45 KBOU 202307
RWRCO

WEATHER ROUNDUP FOR COLORADO
NATIONAL WEATHER SERVICE DENVER/BOULDER CO
500 PM MDT WED AUG 20 2014

NOTE: "FAIR" INDICATES FEW OR NO CLOUDS BELOW 12000 FEET WITH NO
SIGNIFICANT WEATHER AND/OR OBSTRUCTIONS TO VISIBILITY.

COZ001>005-013-030-031-210000-
...NORTHWEST COLORADO...

CITY           SKY/WX    TMP DP  RH WIND       PRES   REMARKS
CRAIG            N/A     73  47  39 W12       30.06F
HAYDEN         PTSUNNY   64  54  68 S7        30.10F
MEEKER         MOSUNNY   69  47  45 VRB3      30.07F
MOUNT WERNER   NOT AVBL
STEAMBOAT SPGS CLOUDY    62  52  70 SE7       30.14R
WALDEN         PTSUNNY   59  45  58 N3        30.18F
$$

COZ006>008-011-210000-
...WEST CENTRAL VALLEYS...

CITY           SKY/WX    TMP DP  RH WIND       PRES   REMARKS
GRAND JUNCTION SUNNY     81  51  35 NW7       29.96F
MONTROSE       LGT RAIN  77  54  44 NW5       30.05F
EAGLE          PTSUNNY   66  48  52 S10G31    30.14R
RIFLE          MOSUNNY   81  45  28 W20G25    30.00S
DELTA          MOSUNNY   85  44  24 SW6       29.99F
NUCLA          MOSUNNY   77  37  24 S9        30.11S
$$

COZ017>023-064>068-210000-
...SOUTHWEST COLORADO...

CITY           SKY/WX    TMP DP  RH WIND       PRES   REMARKS
DURANGO        MOSUNNY   79  35  20 W18       30.11S
CORTEZ         SUNNY     80  35  19 W6        30.09F
PAGOSA SPRINGS MOSUNNY   76  34  22 SW5       30.18S
TELLURIDE      PTSUNNY   63  43  48 W16G22    30.28R
WOLF CREEK PAS NOT AVBL
$$

COZ009-010-012-014-032>034-037-058>063-210000-
...CENTRAL COLORADO...

CITY           SKY/WX    TMP DP  RH WIND       PRES   REMARKS
ASPEN          MOSUNNY   66  44  45 N10G20    30.18R
BUENA VISTA    MOSUNNY   77  35  22 W17       30.11F
COPPER MTN     PTSUNNY   55  41  58 W17       30.46S
BERTHOUD PASS  FAIR      46  45  93 W14       30.50F
COTTONWOOD PAS MOSUNNY   70  32  24 NW3       30.28R
GUNNISON       MOSUNNY   73  37  27 SW6G21    30.16S
KREMMLING      MOSUNNY   75  37  25 W12G17    30.13S
LEADVILLE      MOSUNNY   65  40  39 N16G22    30.28S
MONARCH PASS   CLOUDY    52  36  54 SW17G25   30.55S
SALIDA         MOSUNNY   78  39  24 W15G21    30.16R
SUNLIGHT       PTSUNNY   55  46  71 CALM      30.39S
WILKERSON PASS PTSUNNY   63  32  31 SE5       30.42
$$

COZ069>075-210000-
...SAN LUIS VALLEY/SANGRE DE CRISTO MOUNTAINS...

CITY           SKY/WX    TMP DP  RH WIND       PRES   REMARKS
ALAMOSA        MOSUNNY   80  37  21 SW15      30.10F
LA VETA PASS   NOT AVBL
SAGUACHE       CLOUDY    64  52  63 N5        30.17S
$$

COZ035-036-038>040-210000-
...NORTHERN COLORADO FRONT RANGE...

CITY           SKY/WX    TMP DP  RH WIND       PRES   REMARKS
DENVER INTL AP PTSUNNY   81  52  36 SE22      29.93S
DMNS CITY PARK   N/A     82  48  30 SE5G17    29.92S
AURORA         PTSUNNY   78  53  40 SE14      29.96S
FRONT RANGE AP NOT AVBL
ERIE MUNI ARPT CLOUDY    85  41  20 S6        29.91R
BOULDER MUN AP LGT RAIN  77  50  38 E6G17     29.91R
CENTENNIAL     MOSUNNY   79  51  37 SE14      29.97S
BROOMFIELD     NOT AVBL
FORT COLLINS   MOSUNNY   88  50  27 NE12      29.87S
LONGMONT       PTSUNNY   94  41  15 W10       29.90R
$$

COZ041-046-047-076>085-087-088-210000-
...PIKES PEAK/PALMER DIVIDE AND SOUTHERN FOOTHILLS...

CITY           SKY/WX    TMP DP  RH WIND       PRES   REMARKS
COLO. SPRINGS  PTSUNNY   78  54  43 N15G24    29.98F THUNDER
A. F. ACADEMY  PTSUNNY   78  48  34 N12       30.01S
ELLICOTT       MOSUNNY   84  42  22 NW6       29.97S
FALCON         CLOUDY    69  57  65 SE9       30.06S
FORT CARSON    MOSUNNY   86  50  28 N6        29.95S
LIMON          PTSUNNY   82  51  34 N20       29.94R
MONUMENT HILL  PTSUNNY   72  50  46 NE9       30.07S
TRINIDAD       PTSUNNY   85  47  26 SE6       29.95F
$$

COZ042>045-048>051-090-091-210000-
...NORTHEAST COLORADO...

CITY           SKY/WX    TMP DP  RH WIND       PRES   REMARKS
GREELEY ARPT   MOSUNNY   88  50  27 NE9       29.88S
AKRON          MOSUNNY   85  53  33 S13       29.89R
BURLINGTON     CLOUDY    90  51  26 NE5       29.83F
WRAY             N/A     94  50  22 E6        29.81S
STERLING       MOSUNNY   88  59  37 N18G25    29.84R
HOLYOKE        NOT AVBL
FORT MORGAN    MOSUNNY   84  53  35 SE7       29.89R
$$

COZ086-089-092>099-210000-
...SOUTHEAST COLORADO...

CITY           SKY/WX    TMP DP  RH WIND       PRES   REMARKS
PUEBLO         SUNNY     91  46  21 S7        29.84F
LA JUNTA       MOSUNNY   94  48  20 VRB7      29.81F
LAMAR          PTSUNNY   89  52  28 W10       29.78R
SPRINGFIELD      N/A     92  46  20 SW15      29.84F
$$


USA.gov is the U.S. government's official web portal to all federal, state and local government web resources and services.